This demonstration page uses our WeatherBlox Daily Observations layout. Learn more.

Left ArrowRight Arrow

44.8408, -93.29828

Hourly Observations for March 18, 2017

Temp ( °F °C ) Dew Point ( °F °C ) Humidity (%) Winds ( mph kmh ) Pressure ( in mb ) Visibility ( mi km ) Precip ( " mm )
12:53 am 00:53 Cloudy 34 1.1 25 -3.9 70 70 NW 23 37 30.13 1020 10 16 0.00 0.00
1:53 am 01:53 Cloudy 33 0.6 24 -4.4 70 70 NW 21 33 30.15 1021 10 16 0.00 0.00
2:53 am 02:53 Cloudy 32 0 23 -5 69 69 NW 22 35 30.19 1022 10 16 0.00 0.00
3:53 am 03:53 Cloudy 32 0 24 -4.4 73 73 NW 15 24 30.20 1023 10 16 0.00 0.00
4:53 am 04:53 Cloudy 31 -0.6 23 -5 72 72 NNW 17 28 30.22 1024 10 16 0.00 0.00
5:53 am 05:53 Cloudy 31 -0.6 23 -5 72 72 NW 20 31 30.25 1024 10 16 0.00 0.00
6:53 am 06:53 Cloudy 30 -1.1 23 -5 75 75 NNW 16 26 30.27 1025 10 16 0.00 0.00
7:53 am 07:53 Cloudy 30 -1.1 22 -5.6 72 72 NNW 13 20 30.29 1026 10 16 0.00 0.00
8:53 am 08:53 Cloudy 30 -1.1 22 -5.6 72 72 NW 14 22 30.32 1027 10 16 0.00 0.00
9:53 am 09:53 Cloudy 31 -0.6 22 -5.6 69 69 NNW 14 22 30.33 1027 10 16 0.00 0.00
10:53 am 10:53 Cloudy 31 -0.6 22 -5.6 69 69 NNW 10 17 30.35 1028 10 16 0.00 0.00
11:53 am 11:53 Cloudy 33 0.6 22 -5.6 64 64 NNW 9 15 30.35 1028 10 16 0.00 0.00
12:53 pm 12:53 Mostly Cloudy 36 2.2 23 -5 59 59 NNW 7 11 30.35 1028 10 16 0.00 0.00
1:53 pm 13:53 Mostly Cloudy 37 2.8 23 -5 57 57 NNW 6 9 30.35 1028 10 16 0.00 0.00
2:53 pm 14:53 Sunny 39 3.9 23 -5 53 53 NNW 7 11 30.34 1027 10 16 0.00 0.00
3:53 pm 15:53 Partly Cloudy 40 4.4 23 -5 51 51 NW 3 6 30.32 1027 10 16 0.00 0.00
4:53 pm 16:53 Partly Cloudy 41 5 23 -5 49 49 VRB 3 6 30.31 1027 10 16 0.00 0.00
5:53 pm 17:53 Partly Cloudy 42 5.6 23 -5 47 47 N 5 7 30.31 1027 10 16 0.00 0.00
6:53 pm 18:53 Mostly Sunny 40 4.4 22 -5.6 49 49 VRB 3 6 30.32 1027 10 16 0.00 0.00
7:53 pm 19:53 Mostly Clear 39 3.9 22 -5.6 50 50 VRB 5 7 30.32 1027 10 16 0.00 0.00
8:53 pm 20:53 Mostly Clear 36 2.2 23 -5 59 59 E 8 13 30.32 1027 10 16 0.00 0.00
9:53 pm 21:53 Mostly Clear 34 1.1 22 -5.6 61 61 ESE 6 9 30.34 1027 10 16 0.00 0.00
10:53 pm 22:53 Clear 33 0.6 23 -5 66 66 SE 6 9 30.35 1028 10 16 0.00 0.00
11:53 pm 23:53 Clear 31 -0.6 22 -5.6 69 69 SE 7 11 30.34 1028 10 16 0.00 0.00

Powered by AerisWeather